Torna al catalogo

CZ-6A DEB

AttivoSSO
NORAD 54427·DEBRIS·🇨🇳 China

Lanciato Nov 11, 2022 da Taiyuan Satellite Launch Center

Loading…

Prossimi Passaggi (prossime 24 ore)

TLE

AggiornatoSource: Space-Track

Epoca: Sep 14, 2026, 08:53 UTC

1 54427U 22151FB  26257.37062380  .00000596  00000-0  49805-3 0  9993
2 54427  99.0536 222.9612 0173334 279.4468  78.7134 13.85584697193651

Traccia CZ-6A DEB in tempo reale con AllMySat

Download on the App Store